PA1CG-7 Weather Reports


time (UTC)temp
C
wind
direction
speed
KPH
gust
KPH
rain 1hr
cm
rain 24hr
cm
rain mn
cm
humidity
%
barometer
mb
20260506195215 13 0 9.7 12.9 0.00 0.00 0.00 64 1012.2
20260506194215 13 338 8.0 12.9 0.00 0.00 0.00 65 1012.1
20260506193215 13 338 8.0 12.9 0.00 0.00 0.00 65 1012.0
20260506192216 13 315 3.2 6.4 0.00 0.00 0.00 65 1011.8
20260506191215 13 338 9.7 14.5 0.00 0.00 0.00 66 1011.8
20260506190216 13 338 8.0 11.3 0.00 0.00 0.00 65 1011.6
20260506185215 13 315 6.4 12.9 0.00 0.00 0.00 64 1011.5
20260506184217 13 338 3.2 6.4 0.00 0.00 0.00 63 1011.3
20260506183217 13 0 4.8 11.3 0.00 0.00 0.00 63 1011.3
20260506182217 13 315 4.8 6.4 0.00 0.00 0.00 65 1011.1
20260506181217 13 338 6.4 12.9 0.00 0.00 0.00 66 1011.0
20260506180217 13 293 6.4 9.7 0.00 0.00 0.00 68 1010.9
20260506175217 13 315 9.7 16.1 0.00 0.00 0.00 68 1010.9
20260506174217 13 293 11.3 16.1 0.00 0.00 0.00 68 1010.7
20260506173217 13 315 11.3 17.7 0.00 0.00 0.00 69 1010.6
20260506172217 13 315 11.3 16.1 0.00 0.00 0.00 70 1010.6
20260506171217 13 315 8.0 12.9 0.00 0.00 0.00 70 1010.4
20260506170217 13 293 12.9 17.7 0.00 0.00 0.00 69 1010.3
20260506165217 13 338 8.0 11.3 0.00 0.00 0.00 69 1010.3
20260506164217 13 315 11.3 17.7 0.00 0.00 0.00 69 1010.3
20260506163217 13 293 12.9 20.9 0.00 0.00 0.00 70 1010.2
20260506162217 13 293 12.9 22.5 0.00 0.00 0.00 70 1010.2
20260506161217 13 315 11.3 17.7 0.00 0.00 0.00 69 1010.2
20260506160217 14 315 16.1 22.5 0.00 0.00 0.00 68 1010.2
20260506155217 14 315 4.8 8.0 0.00 0.00 0.00 67 1010.1
20260506154217 14 293 14.5 20.9 0.00 0.00 0.00 67 1010.2
20260506153217 14 338 12.9 19.3 0.00 0.00 0.00 66 1010.1
20260506152217 14 315 19.3 32.2 0.00 0.00 0.00 66 1010.1
20260506151217 15 315 17.7 29.0 0.00 0.00 0.00 65 1010.1
20260506150217 15 315 16.1 27.4 0.00 0.00 0.00 66 1010.1
20260506145217 15 315 16.1 30.6 0.00 0.00 0.00 64 1010.0
20260506144217 15 315 12.9 22.5 0.00 0.00 0.00 64 1009.9
20260506143217 15 315 16.1 20.9 0.00 0.00 0.00 65 1010.0
20260506142217 15 315 9.7 17.7 0.00 0.00 0.00 66 1010.0
20260506141217 15 293 14.5 25.7 0.00 0.00 0.00 67 1010.1
20260506140217 16 315 25.7 33.8 0.00 0.00 0.00 65 1010.1
20260506135217 16 315 22.5 37.0 0.00 0.00 0.00 66 1010.1
20260506134216 16 315 17.7 33.8 0.00 0.00 0.00 67 1010.0
20260506133217 15 338 8.0 14.5 0.00 0.00 0.00 67 1010.0
20260506132217 15 315 17.7 27.4 0.00 0.00 0.00 67 1010.0
20260506131217 15 315 12.9 22.5 0.00 0.00 0.00 70 1010.0
20260506130217 14 315 9.7 16.1 0.00 0.00 0.00 71 1009.9
20260506125217 14 315 14.5 24.1 0.00 0.00 0.00 69 1009.9
20260506124216 15 315 17.7 25.7 0.00 0.00 0.00 69 1009.9
20260506123216 15 315 16.1 20.9 0.00 0.00 0.00 67 1009.8
20260506122216 15 315 19.3 27.4 0.00 0.00 0.00 66 1009.8
20260506121216 15 315 8.0 14.5 0.00 0.00 0.00 67 1009.7
20260506120216 15 315 11.3 22.5 0.00 0.00 0.00 68 1009.6
20260506115217 15 293 9.7 14.5 0.00 0.00 0.00 68 1009.6
20260506114216 14 293 11.3 16.1 0.00 0.00 0.00 67 1009.7
20260506113216 14 315 9.7 12.9 0.00 0.00 0.00 68 1009.7
20260506112217 14 315 14.5 19.3 0.00 0.00 0.00 69 1009.7
20260506111216 14 315 12.9 24.1 0.00 0.00 0.00 69 1009.7
20260506110216 15 315 19.3 27.4 0.00 0.00 0.00 68 1009.7
20260506105216 15 293 14.5 19.3 0.00 0.00 0.00 69 1009.6
20260506104216 15 315 9.7 14.5 0.00 0.00 0.00 70 1009.6
20260506103216 15 315 16.1 24.1 0.00 0.00 0.00 71 1009.6
20260506102216 15 293 16.1 22.5 0.00 0.00 0.00 70 1009.6
20260506101216 15 315 12.9 24.1 0.00 0.00 0.00 67 1009.6
20260506100216 15 315 12.9 20.9 0.00 0.00 0.00 70 1009.4
20260506095216 15 315 11.3 17.7 0.00 0.00 0.00 70 1009.6
20260506094216 13 315 11.3 17.7 0.00 0.00 0.00 72 1009.4
20260506093216 13 338 9.7 16.1 0.00 0.00 0.00 72 1009.5
20260506092216 14 270 9.7 20.9 0.00 0.00 0.00 72 1009.4
20260506091216 14 315 12.9 19.3 0.00 0.00 0.00 72 1009.4
20260506090216 13 338 11.3 17.7 0.00 0.00 0.00 74 1009.3
20260506085216 13 338 6.4 9.7 0.00 0.00 0.00 75 1009.3
20260506084216 13 338 14.5 19.3 0.00 0.00 0.00 75 1009.2
20260506083216 13 315 12.9 17.7 0.00 0.00 0.00 75 1009.2
20260506082216 13 315 12.9 17.7 0.00 0.00 0.00 76 1009.1
20260506081216 13 248 11.3 16.1 0.00 0.00 0.00 77 1009.1
20260506080216 12 315 17.7 27.4 0.00 0.00 0.00 78 1009.2
20260506073216 12 315 14.5 25.7 0.00 0.00 0.00 78 1009.1
20260506072216 12 293 12.9 16.1 0.00 0.00 0.00 79 1009.1
20260506071216 12 315 11.3 16.1 0.00 0.00 0.00 79 1009.1
20260506070216 12 338 16.1 20.9 0.00 0.00 0.00 79 1009.1
20260506062216 11 315 9.7 11.3 0.00 0.00 0.00 80 1008.8
20260506061216 11 293 12.9 20.9 0.00 0.00 0.00 80 1008.8
20260506060216 11 315 12.9 19.3 0.00 0.00 0.00 80 1008.9
20260506051215 11 338 12.9 19.3 0.00 0.00 0.00 80 1008.8
20260506050215 11 338 9.7 14.5 0.00 0.00 0.00 80 1008.8
20260506044216 11 315 14.5 19.3 0.00 0.00 0.00 80 1008.9
20260506043216 11 293 11.3 14.5 0.00 0.00 0.00 80 1008.9
20260506042215 11 293 12.9 19.3 0.00 0.00 0.00 79 1008.9
20260506041215 11 315 14.5 20.9 0.00 0.00 0.00 79 1008.9
20260506040215 11 293 6.4 9.7 0.00 0.00 0.00 79 1008.9
20260506035216 11 315 12.9 27.4 0.00 0.00 0.00 78 1008.9
20260506034215 11 315 14.5 22.5 0.00 0.00 0.00 79 1008.9
20260506033216 11 315 9.7 16.1 0.00 0.00 0.00 79 1009.1
20260506032215 11 293 11.3 24.1 0.00 0.00 0.00 79 1009.1
20260506031215 11 315 12.9 19.3 0.00 0.00 0.00 79 1009.1
20260506030216 11 338 9.7 14.5 0.00 0.00 0.00 78 1009.2
20260506025215 11 293 6.4 9.7 0.00 0.00 0.00 77 1009.2
20260506024215 10 293 12.9 17.7 0.00 0.00 0.00 77 1009.4
20260506023215 10 315 9.7 11.3 0.00 0.00 0.00 78 1009.3
20260506022215 10 315 8.0 11.3 0.00 0.00 0.00 79 1009.4
20260506021217 10 315 11.3 16.1 0.00 0.00 0.00 79 1009.4
20260506020217 10 338 6.4 11.3 0.00 0.00 0.00 80 1009.5
20260506015218 10 293 6.4 12.9 0.00 0.00 0.00 79 1009.5
20260506014218 10 315 11.3 14.5 0.00 0.00 0.00 78 1009.6
20260506013217 10 315 9.7 16.1 0.00 0.00 0.00 78 1009.6
20260506012217 10 315 4.8 9.7 0.00 0.00 0.00 78 1009.5
20260506011218 10 338 11.3 17.7 0.00 0.00 0.00 79 1009.6
20260506010217 10 315 14.5 22.5 0.00 0.00 0.00 79 1009.7
20260506005217 10 315 9.7 16.1 0.00 0.00 0.00 78 1009.6
20260506004217 10 315 8.0 11.3 0.00 0.00 0.00 78 1009.7
20260506003217 10 315 6.4 11.3 0.00 0.00 0.00 78 1009.9
20260506002217 10 315 6.4 11.3 0.00 0.00 0.00 78 1009.9
20260506001217 10 315 8.0 11.3 0.00 0.00 0.00 78 1010.0
20260506000219 10 315 8.0 14.5 0.00 0.00 0.00 78 1010.1
20260505235217 10 315 8.0 11.3 0.00 0.00 0.00 77 1010.3
20260505234217 10 338 9.7 12.9 0.00 0.00 0.00 77 1010.2
20260505233217 10 315 12.9 16.1 0.00 0.00 0.00 76 1010.3
20260505232217 10 315 11.3 17.7 0.00 0.00 0.00 76 1010.4
20260505231217 10 315 6.4 9.7 0.00 0.00 0.00 76 1010.4
20260505230217 10 293 4.8 8.0 0.00 0.00 0.00 76 1010.5
20260505225217 10 0 9.7 14.5 0.00 0.00 0.00 75 1010.6
20260505224217 10 315 9.7 14.5 0.00 0.00 0.00 75 1010.5
20260505223217 10 315 11.3 14.5 0.00 0.00 0.00 74 1010.5
20260505222217 10 338 6.4 12.9 0.00 0.00 0.00 74 1010.6
20260505221217 10 293 8.0 11.3 0.00 0.00 0.00 74 1010.7
20260505220217 10 315 9.7 14.5 0.00 0.00 0.00 73 1010.8
20260505215216 10 315 9.7 16.1 0.00 0.00 0.00 73 1010.9
20260505214216 10 315 8.0 12.9 0.00 0.00 0.00 73 1010.9
20260505213217 10 315 4.8 8.0 0.00 0.00 0.00 73 1010.9
20260505212216 11 315 4.8 9.7 0.00 0.00 0.00 73 1010.9
20260505211216 11 315 6.4 9.7 0.00 0.00 0.00 73 1010.9
20260505210216 11 315 8.0 11.3 0.00 0.00 0.00 73 1011.0
20260505205216 11 338 9.7 17.7 0.00 0.00 0.00 73 1011.1
20260505204217 11 338 8.0 12.9 0.00 0.00 0.00 73 1011.1
20260505203216 11 338 4.8 11.3 0.00 0.00 0.00 73 1011.0
20260505202216 11 315 12.9 17.7 0.00 0.00 0.00 72 1011.1
20260505201216 11 315 11.3 12.9 0.00 0.00 0.00 72 1010.9
20260505200216 11 315 8.0 12.9 0.00 0.00 0.00 72 1010.9